Grigor Bayramyan

Olheiro-Chefe - Ararat
19 Nov 2028
Domingo
Processo

Personalidade

Adaptabilidade (8) Ambição (11) Controvérsia (15) Lealdade (8) Pressão (11) Profissionalismo (13) Espírito Esportivo (2) Temperamento (1)

Perfil

Estilo de Treinamento Democrático
Licença Continental B
Determinação 5
Gestão de Pessoas 6
Motivação 10
Disciplina 8
Satisfação no Trabalho
100%
Fadiga
0%
Função Olheiro-Chefe
Salário 32.3K p/s
Contrato 14.03.2030

Desempenho

Comportamento Bom
Eficácia do Treinamento
44%
Desenvolvimento do Jogador
15%
Prevenção de Lesões
30%
Implementação Tática
45%

Eventos Recentes

Participou de uma reunião de recrutamento 7d atrás
Participou de uma reunião de recrutamento 14d atrás
Participou de uma reunião de recrutamento 21d atrás
Participou de uma reunião de recrutamento 28d atrás
Participou de uma reunião de recrutamento 35d atrás
Participou de uma reunião de recrutamento 42d atrás
Participou de uma reunião de recrutamento 49d atrás
Participou de uma reunião de recrutamento 56d atrás

Monitorando agora

119
Jogador Clube Status Habilidade Confiança Observado Última observação Último voto
Alejandro Rincon Llaneros Ativo 112 / 101 40% 3 29.12.2027 -
Lucas Cano All Boys Ativo 103 / 98 40% 4 28.12.2027 -
Santiago Rodríguez Gimnasia y Esgrima Ativo 111 / 118 40% 3 28.12.2027 -
Rodrigo Pollero Deportivo Tachira Ativo 107 / 119 40% 3 26.12.2027 -
Lisandro Cabrera Maipú Ativo 120 / 102 40% 2 26.12.2027 -
Dato Mchedlidze Tskhinvali Ativo 90 / 101 40% 1 25.12.2027 -
Tobías Cervera Gimnasia y Esgrima Ativo 102 / 113 40% 1 25.12.2027 -
Daniel Barrea Godoy Cruz Ativo 116 / 135 40% 4 24.12.2027 -
Santiago Sala Güemes Ativo 124 / 105 40% 3 24.12.2027 -
Octavio Bianchi Gimnasia y Esgrima Ativo 121 / 119 40% 1 23.12.2027 -
Agustín Gallo Tristán Suárez Ativo 120 / 110 40% 3 17.12.2027 -
Sagir Arce Saburtalo Ativo 94 / 109 40% 4 11.12.2027 -
Gianluca Pugliese Güemes Ativo 119 / 105 40% 4 11.12.2027 -
Sebastián Marfort Racing Ativo 89 / 114 40% 1 06.12.2027 -
Lautaro Gordillo Colegiales Ativo 115 / 123 40% 3 05.12.2027 -
Renzo Reynaga Patronato Ativo 109 / 98 40% 2 05.12.2027 -
Ronaldo Peña Deportivo Lara Ativo 112 / 93 40% 4 03.12.2027 -
Franco Ayunta Temperley Ativo 117 / 111 40% 4 03.12.2027 -
José Balza Deportivo Tachira Ativo 105 / 106 40% 2 02.12.2027 -
Jeriel De Santis Caracas Ativo 104 / 114 40% 2 01.12.2027 -
Elías Peralta Lokomotivi Ativo 100 / 94 40% 1 01.12.2027 -
Jhonatan Candia Barracas Central Ativo 111 / 110 40% 2 30.11.2027 -
Genaro Rossi San Martín SJ Ativo 115 / 105 40% 2 30.11.2027 -
Juan David Rueda Alianza Petrolera Ativo 129 / 99 40% 2 27.11.2027 -
Rafael Moreno Atletico Venezuela Ativo 123 / 128 40% 2 26.11.2027 -
Rodrigo Mosqueira Stjarnan Ativo 112 / 102 40% 2 26.11.2027 -
Richard Figueroa Deportivo Lara Ativo 127 / 93 40% 1 25.11.2027 -
Álex Arce Independiente Rivadavia Ativo 125 / 139 40% 1 23.11.2027 -
Mauricio Márquez Caracas Ativo 120 / 101 40% 7 20.11.2027 -
Ronny Maza Aragua Ativo 113 / 103 40% 1 20.11.2027 -
José Barreto Quilmes Ativo 135 / 118 40% 2 19.11.2027 -
Lorenzo Barrera Agropecuario Argentino Ativo 86 / 94 40% 2 19.11.2027 -
Sergio González Racing Ativo 134 / 110 40% 2 17.11.2027 -
Favio Cabral Mitre Ativo 111 / 108 40% 1 17.11.2027 -
Agustín Lavezzi Quilmes Ativo 90 / 103 40% 1 15.11.2027 -
Salomon Ramirez Atletico Venezuela Ativo 92 / 107 40% 1 12.11.2027 -
Gustavo Viera Cerro Largo Ativo 97 / 115 40% 1 06.11.2027 -
Enzo González Defensores Ativo 99 / 111 40% 2 05.11.2027 -
Sebastián Cocimano Nueva Chicago Ativo 104 / 117 40% 3 05.11.2027 -
Tornike Mikautadze Tskhinvali Ativo 112 / 105 40% 1 28.10.2027 -
Matías Samaniego Talleres Ativo 102 / 85 40% 2 27.10.2027 -
César Magallan Estudiantes de Merida Ativo 114 / 120 40% 4 22.10.2027 -
Kekuta Manneh Samtredia Ativo 104 / 83 40% 1 22.10.2027 -
Nicolás Heiz Maipú Ativo 103 / 96 40% 2 21.10.2027 -
Rafael Arace Caracas Ativo 127 / 118 40% 2 07.10.2027 -
Alan Bonansea Colón Ativo 94 / 102 40% 2 06.10.2027 -
Junior Paredes Trujillanos Ativo 95 / 93 40% 1 06.10.2027 -
Juan Mendoza Güemes Ativo 86 / 115 40% 1 24.09.2027 -
Adalberto Peñaranda Deportivo Tachira Ativo 139 / 99 40% 2 17.09.2027 -
Rodrigo Bogarín Barracas Central Ativo 129 / 125 40% 1 11.09.2027 -
Camilo Machado Madryn Ativo 115 / 101 40% 1 08.09.2027 -
Tomás Bolzicco Chaco For Ever Ativo 81 / 112 40% 1 08.09.2027 -
Rui Costa Port Vale Ativo 104 / 122 40% 1 09.08.2027 -
Lorenzo De Leo Renate Ativo 92 / 90 40% 1 26.07.2027 -
Giuseppe Panico Foggia Ativo 140 / 111 40% 2 19.07.2027 -
Augusto Berrondo Tristán Suárez Ativo 125 / 97 40% 1 19.07.2027 -
Andrew Dallas Sambenedettese Ativo 83 / 103 40% 1 12.07.2027 -
Patrick Schmidt Tarxien Rainbows Ativo 88 / 102 40% 3 22.06.2027 -
Ruslan Apekov Torpedo Moscow Ativo 87 / 104 40% 1 01.06.2027 -
Mikhail Ignatov Sochi Ativo 136 / 123 40% 1 29.05.2027 -
Thom van Bergen Groningen Ativo 108 / 119 40% 1 28.05.2027 -
Damir Céter Hamrun Spartans Ativo 105 / 115 40% 2 26.05.2027 -
Martin Sekulić Ural Ativo 132 / 102 40% 2 24.05.2027 -
Mômô Fanyé Touré Alashkert Ativo 117 / 119 40% 3 22.05.2027 -
Törles Knöll Al-Ta'ee Ativo 108 / 117 40% 1 22.05.2027 -
Jonathan Cañete Portuguesa Ativo 137 / 105 40% 1 20.05.2027 -
Yakou Meïté Damac Ativo 119 / 109 40% 3 17.05.2027 -
Vladislav Sarveli Nizhniy Novgorod Ativo 129 / 117 40% 2 15.05.2027 -
Kamran Aliev SKA Khabarovsk Ativo 102 / 96 40% 3 11.05.2027 -
Robert Murić Floriana Ativo 88 / 86 40% 1 02.05.2027 -
Prince Ibara Al-Njoom Ativo 101 / 105 40% 1 02.05.2027 -
David Davidyan Rotor Ativo 81 / 116 40% 1 01.05.2027 -
Ekain Orobengoa Real Sociedad Ativo 81 / 100 40% 1 30.04.2027 -
Matheus Aiás Noah Ativo 105 / 125 40% 2 27.04.2027 -
Georgy Gongadze Ufa Ativo 76 / 113 40% 1 23.04.2027 -
Yeangel Montero Naxxar Lions Ativo 100 / 93 40% 2 17.04.2027 -
Moussakoye Diallo Stade Malien Ativo 123 / 104 40% 1 17.04.2027 -
Alexandr Saplinov Volga Ativo 93 / 99 40% 2 16.04.2027 -
Georgy Melkadze Akhmat Grozny Ativo 119 / 103 40% 1 15.04.2027 -
Leandro Antunes Al-Riyadh Ativo 123 / 115 40% 1 08.04.2027 -
Carlos Guerreño Hajer Ativo 84 / 103 40% 3 07.04.2027 -
Indrit Tuci Olimpija Ljubljana Ativo 87 / 107 40% 1 07.04.2027 -
Renat Garayev AZAL Ativo 121 / 100 40% 3 06.04.2027 -
Artem Poliarus Urartu Ativo 108 / 111 41% 1 25.01.2027 -
Kauan Floriana Ativo 106 / 106 40% 1 03.01.2027 -
Yilson Mosquera Tarxien Rainbows Ativo 97 / 93 40% 1 02.01.2027 -
Vyacheslav Grulev Nizhniy Novgorod Ativo 89 / 125 40% 2 31.12.2026 -
Khetag Khosonov Akron Ativo 112 / 110 40% 1 31.12.2026 -
François Kamano Sochi Ativo 99 / 129 40% 1 21.12.2026 -
Karim El Berkaoui Al-Khaleej Ativo 111 / 134 40% 2 19.12.2026 -
Alexey Kashtanov Torpedo Moscow Ativo 113 / 119 40% 1 17.12.2026 -
Younes El Bahraoui Al-Taawoun Ativo 119 / 113 40% 1 16.12.2026 -
Oumar Gonzalez Al-Ra'ed Ativo 106 / 134 40% 1 15.12.2026 -
Artem Sokol Rodina Ativo 113 / 98 40% 1 15.12.2026 -
Musa Qurbanlı Qarabag Ativo 116 / 102 40% 1 11.12.2026 -
Leandro Lacunza Hibernians Ativo 116 / 82 40% 1 08.12.2026 -
Shahriyar Abdullayev Ravan Ativo 97 / 110 40% 1 07.12.2026 -
Zoumana Simpara Djoliba Ativo 87 / 99 40% 1 02.12.2026 -
Yegor Kortsov Dinamo Brest Ativo 116 / 97 40% 1 28.11.2026 -
David Karaev KAMAZ Ativo 111 / 92 40% 1 26.11.2026 -
Jáder Valencia Deportes Tolima Ativo 133 / 102 40% 1 25.11.2026 -
Rüstəm Əhmədzadə Sumgayit Ativo 103 / 118 40% 1 25.11.2026 -
Ilja Safronov Rotor Ativo 102 / 96 40% 1 23.11.2026 -
Liam Bennett Cambridge United Ativo 121 / 107 40% 1 21.11.2026 -
Cavid Nazarov Khazar Ativo 117 / 116 40% 1 19.11.2026 -
Macaulay Langstaff Millwall Ativo 107 / 126 40% 2 18.11.2026 -
Gevorg Tarakhchyan Pyunik Ativo 115 / 89 40% 1 24.09.2026 -
Magnus Lankhof Dahlby Stabaek Ativo 95 / 87 40% 1 22.09.2026 -
Denzel Jubitana Neftchi Ativo 127 / 108 40% 1 19.09.2026 -
Egor Bogomolskiy Zira Ativo 102 / 95 40% 1 18.09.2026 -
Paul Ayongo Ararat-Armenia Ativo 105 / 119 40% 1 16.09.2026 -
Matty Stevens AFC Wimbledon Ativo 90 / 122 40% 1 14.09.2026 -
Steven Alfred Torpedo-BelAZ Ativo 94 / 83 40% 1 14.09.2026 -
Mo Dauda Portimonense Ativo 109 / 92 40% 1 13.09.2026 -
Will Swan Bradford City Ativo 78 / 99 40% 1 08.09.2026 -
Valentin Costache Noah Ativo 111 / 127 40% 1 08.09.2026 -
Jonel Désirè Van Ativo 79 / 85 41% 1 31.08.2026 -
Allef Van Ativo 82 / 98 41% 1 10.08.2026 -
Hamlet Mnatsakanyan Shirak Ativo 92 / 88 41% 1 03.08.2026 -